SCP
0 0 0 0 0 0 0 0 0 0 0 0 0 0 0 0 0 0 0 0 0 0 0 0 0 0 0 0 0 0 0 0 0 0 0 0 0 0 0 0 0 0 0 0
0 0 0 0 0 0 0 0 0 0 0 0 0 0 0 0 0 0 0 0 0 0 0 0 0 0 0 0 0 0 0 0 0 0 0 0 0 0 0 0 0 0 0 0
0 0 0 0 0 0 0 0 0 0 0 0 0 0 0 0 0 0 0 0 0 0 0 0 0 0 0 0 0 0 0 0 0 0 0 0 0 0 0 0 0 0 0 0
0 0 0 0 0 0 0 0 0 0 0 0 0 0 0 0 0 0 0 0 0 0 0 0 0 0 0 0 0 0 0 0 0 0 0 0 0 0 0 0 0 0 0 0
0 0 0 0 0 0 0 0 0 0 0 0 0 0 0 0 0 0 0 0 0 0 0 0 0 0 0 0 0 0 0 0 0 0 0 0 0 0 0 0 0 0 0 0
0 0 0 0 0 0 0 0 0 0 0 0 0 0 0 0 0 0 0 0 0 0 0 0 0 0 0 0 0 0 0 0 0 0 0 0 0 0 0 0 0 0 0 0
0 0 0 0 0 0 0 0 0 0 0 0 0 0 0 0 0 0 0 0 0 0 0 0 0 0 0 0 0 0 0 0 0 0 0 0 0 0 0 0 0 0 0 0
0 0 0 0 0 0 0 0 0 0 0 0 0 0 0 0 0 0 0 0 0 0 0 0 0 0 0 0 0 0 0 0 0 0 0 0 0 0 0 0 0 0 0 0
0 0 0 0 0 0 0 0 0 0 0 0 0 0 0 0 0 0 0 0 0 0 0 0 0 0 0 0 0 0 0 0 0 0 0 0 0 0 0 0 0 0 0 0
0 0 0 0 0 0 0 0 0 0 0 0 0 0 0 0 0 0 0 0 0 0 0 0 0 0 0 0 0 0 0 0 0 0 0 0 0 0 0 0 0 0 0 0
0 0 0 0 0 0 0 0 0 0 0 0 0 0 0 0 0 0 0 0 0 0 0 0 0 0 0 0 0 0 0 0 0 0 0 0 0 0 0 0 0 0 0 0
0 0 0 0 0 0 0 0 0 0 0 0 0 0 0 0 0 0 0 0 0 0 0 0 0 0 0 0 0 0 0 0 0 0 0 0 0 0 0 0 0 0 0 0
0 0 0 0 0 0 0 0 0 0 0 0 0 0 0 0 0 0 0 0 0 0 0 0 0 0 0 0 0 0 0 0 0 0 0 0 0 0 0 0 0 0 0 0
0 0 0 0 0 0 0 0 0 0 0 0 0 0 0 0 0 0 0 0 0 0 0 0 0 0 0 0 0 0 0 0 0 0 0 0 0 0 0 0 0 0 0 0
0 0 0 0 0 0 0 0 0 0 0 0 0 0 0 0 0 0 0 0 0 0 0 0 0 0 0 0 0 0 0 0 0 0 0 0 0 0 0 0 0 0 0 0
0 0 0 0 0 0 0 0 0 0 0 0 0 0 0 0 0 0 0 0 0 0 0 0 0 0 0 0 0 0 0 0 0 0 0 0 0 0 0 0 0 0 0 0
0 0 0 0 0 0 0 0 0 0 0 0 0 0 0 0 0 0 0 0 0 0 0 0 0 0 0 0 0 0 0 0 0 0 0 0 0 0 0 0 0 0 0 0
0 0 0 0 0 0 0 0 0 0 0 0 0 0 0 0 0 0 0 0 0 0 0 0 0 0 0 0 0 0 0 0 0 0 0 0 0 0 0 0 0 0 0 0
0 0 0 0 0 0 0 0 0 0 0 0 0 0 0 0 0 0 0 0 0 0 0 0 0 0 0 0 0 0 0 0 0 0 0 0 0 0 0 0 0 0 0 0
0 0 0 0 0 0 0 0 0 0 0 0 0 0 0 0 0 0 0 0 0 0 0 0 0 0 0 0 0 0 0 0 0 0 0 0 0 0 0 0 0 0 0 0
0 0 0 0 0 0 0 0 0 0 0 0 0 0 0 0 0 0 0 0 0 0 0 0 0 0 0 0 0 0 0 0 0 0 0 0 0 0 0 0 0 0 0 0
0 0 0 0 0 0 0 0 0 0 0 0 0 0 0 0 0 0 0 0 0 0 0 0 0 0 0 0 0 0 0 0 0 0 0 0 0 0 0 0 0 0 0 0
0 0 0 0 0 0 0 0 0 0 0 0 0 0 0 0 0 0 0 0 0 0 0 0 0 0 0 0 0 0 0 0 0 0 0 0 0 0 0 0 0 0 0 0
0 0 0 0 0 0 0 0 0 0 0 0 0 0 0 0 0 0 0 0 0 0 0 0 0 0 0 0 0 0 0 0 0 0 0 0 0 0 0 0 0 0 0 0
0 0 0 0 0 0 0 0 0 0 0 0 0 0 0 0 0 0 0 0 0 0 0 0 0 0 0 0 0 0 0 0 0 0 0 0 0 0 0 0 0 0 0 0
0 0 0 0 0 0 0 0 0 0 0 0 0 0 0 0 0 0 0 0 0 0 0 0 0 0 0 0 0 0 0 0 0 0 0 0 0 0 0 0 0 0 0 0
0 0 0 0 0 0 0 0 0 0 0 0 0 0 0 0 0 0 0 0 0 0 0 0 0 0 0 0 0 0 0 0 0 0 0 0 0 0 0 0 0 0 0 0
Wind_Speed
0 0 2 3 3 3 3 2 4 6 7 7 4 5 6 7 8 9 10 10 10 10 9 10 10 10 10 10 10 10 9 10 12 12 11 11 11 11 10 10 11 10 9 9
2 3 4 3 3 2 0 2 4 5 7 4 4 5 6 9 10 10 10 10 10 10 10 10 10 10 10 10 10 9 10 11 11 11 10 10 11 10 10 10 10 9 10 10
2 2 1 2 3 2 3 5 5 6 6 4 7 7 8 9 9 10 11 11 10 10 10 10 10 10 10 10 10 9 10 11 11 10 11 11 11 10 10 10 9 9 10 10
2 2 3 6 3 3 4 6 5 5 6 6 9 8 8 9 8 10 10 10 10 9 10 10 10 10 10 11 11 11 11 12 11 10 11 10 10 10 9 8 8 8 9 9
3 1 5 3 2 2 3 7 5 5 7 7 7 7 7 7 5 7 9 9 9 10 11 10 11 12 12 12 12 12 13 12 11 11 11 10 10 10 9 7 8 7 6 8
3 1 4 5 2 0 1 6 4 4 7 7 5 6 7 5 7 9 9 8 10 10 11 12 12 12 12 13 13 13 13 13 12 11 11 12 11 10 8 7 8 7 7 8
3 3 7 5 1 2 0 7 3 4 6 5 4 8 8 9 9 8 9 11 11 11 12 12 12 12 13 14 14 14 14 13 13 11 11 11 10 9 8 8 7 7 8 7
4 2 7 3 4 5 8 4 2 4 4 6 7 9 9 9 9 10 11 11 11 11 12 12 12 11 13 14 14 14 13 13 12 11 10 10 8 7 7 7 7 7 7 7
8 8 6 4 6 4 4 3 3 4 5 5 6 7 8 8 9 10 11 11 11 12 14 13 12 11 14 15 14 14 13 12 11 11 9 8 8 8 6 6 6 6 6 7
3 6 5 5 4 2 3 4 3 4 5 4 6 8 9 9 9 10 10 12 11 12 14 14 14 13 13 14 14 13 13 12 10 9 8 7 6 5 5 5 6 6 6 6
4 5 3 5 6 4 3 2 3 4 3 4 6 8 8 8 10 10 11 10 10 12 14 15 15 14 14 13 13 13 12 10 9 7 6 6 5 4 6 6 6 6 5 5
8 8 6 6 5 4 4 3 4 4 4 5 5 7 8 8 9 10 12 12 12 13 14 15 15 15 13 12 12 11 10 9 7 6 5 4 4 4 5 6 7 9 9 6
6 4 6 3 3 4 3 3 3 3 5 6 6 6 7 8 8 10 12 12 13 14 15 15 15 14 13 12 12 11 10 9 7 6 5 4 3 3 3 2 2 2 4 7
4 5 3 4 4 4 3 1 2 3 5 5 6 6 7 8 10 12 12 13 13 14 14 14 14 14 13 12 12 11 10 9 8 5 4 3 3 2 2 1 1 1 1 1
7 6 5 4 3 3 2 1 2 4 5 6 5 7 8 9 11 12 12 12 13 14 14 14 15 14 13 12 12 11 9 6 5 4 4 3 2 2 1 1 1 1 1 3
6 4 4 4 5 3 2 2 3 5 5 6 6 7 9 9 11 12 12 11 13 15 14 14 14 14 14 12 11 8 7 10 7 4 3 3 2 1 1 1 1 1 1 2
8 6 6 5 6 5 4 5 5 5 5 6 7 8 9 10 11 12 13 13 12 12 12 12 14 15 14 12 10 7 6 6 8 4 3 2 2 1 1 1 1 1 1 1
9 8 8 7 6 6 5 5 5 5 5 6 6 7 8 9 11 12 13 14 13 12 11 12 15 16 13 12 9 6 5 4 3 3 3 2 2 1 1 2 2 2 1 1
6 7 8 7 7 6 5 5 5 5 5 5 5 6 7 8 9 11 12 12 12 13 15 16 20 15 13 13 12 5 5 4 3 3 2 3 3 3 2 2 2 2 2 2
7 7 7 7 6 5 4 4 4 4 4 4 5 6 8 9 9 11 11 9 8 9 14 16 15 12 12 12 13 5 4 4 3 3 3 3 3 3 3 3 3 2 2 2
8 8 8 7 6 5 4 3 3 4 4 4 4 6 7 9 9 9 10 9 10 12 15 14 11 11 11 12 10 5 4 4 3 3 3 3 3 3 3 3 3 2 2 2
8 8 8 6 5 4 4 3 3 3 3 4 4 5 7 8 9 8 7 6 10 14 12 9 10 14 16 13 6 6 5 4 4 3 3 3 3 3 3 3 3 2 2 2
7 7 7 7 6 5 3 3 3 3 3 3 4 5 6 6 6 7 8 8 9 14 11 9 15 20 18 9 7 6 6 5 4 4 3 3 3 2 2 3 2 2 2 2
6 7 7 6 5 4 4 4 3 2 2 2 3 4 4 5 5 4 6 10 12 13 9 10 16 19 14 7 7 6 6 6 5 4 3 3 2 2 2 2 2 2 2 2
7 7 6 6 6 6 6 4 3 2 2 2 3 3 3 3 4 6 7 9 11 11 9 11 14 15 10 8 8 7 6 6 6 4 3 3 3 2 2 2 2 2 2 2
7 6 7 8 7 6 5 4 4 3 2 2 2 3 4 4 5 6 6 8 10 10 9 8 10 10 8 8 8 8 7 7 6 6 5 4 4 3 2 2 3 2 2 2
5 5 4 5 5 5 5 5 5 4 3 2 2 2 3 4 5 6 7 7 7 8 7 7 8 8 8 8 8 7 7 6 6 6 5 5 5 4 3 3 3 2 2 3
Wind_Direction
233 280 108 82 59 64 89 166 207 256 265 268 269 278 281 284 288 294 294 292 287 286 287 287 288 286 284 281 280 277 274 268 263 261 257 252 249 246 242 236 236 234 234 235
45 56 84 75 42 62 100 245 251 269 274 254 279 287 285 285 287 290 289 289 290 292 294 295 294 294 293 290 287 284 279 275 272 269 264 256 251 248 243 239 236 231 229 232
206 249 359 262 218 215 246 244 235 249 259 296 300 291 281 283 288 289 291 293 296 298 297 297 296 295 293 288 288 286 282 280 277 274 272 266 261 254 245 240 234 228 230 229
114 74 251 253 224 217 244 258 229 238 264 278 270 275 276 276 280 287 293 296 297 295 294 293 291 292 290 289 289 288 285 283 281 278 277 275 268 259 252 246 236 229 229 227
108 238 285 281 231 214 256 279 222 235 268 278 293 315 292 276 281 286 290 291 290 292 295 294 296 296 296 296 295 293 291 288 286 282 280 275 271 265 258 251 244 232 228 228
123 187 256 254 244 215 123 290 234 234 271 286 323 321 288 292 309 303 300 297 297 297 297 298 300 301 300 300 298 295 294 290 286 279 276 272 267 262 257 249 247 242 235 230
153 225 264 248 237 83 209 266 244 241 268 281 260 244 273 301 301 293 293 295 296 298 300 300 302 303 302 301 299 297 296 292 288 279 273 270 266 259 252 248 245 243 242 238
150 204 266 219 150 185 224 245 264 267 270 271 267 274 288 295 295 299 300 299 300 303 304 304 304 304 304 302 301 300 298 296 291 283 278 278 266 261 253 244 241 242 243 247
185 211 237 222 209 217 187 225 257 260 274 280 282 286 292 291 293 296 299 301 305 307 307 308 308 307 305 305 306 305 303 299 294 290 280 274 267 262 253 242 239 239 235 239
234 259 245 235 234 232 205 226 256 268 280 281 281 286 292 293 295 300 301 308 309 311 312 314 314 312 306 306 308 307 306 305 300 295 288 281 269 256 246 239 235 235 231 233
244 268 275 260 233 225 229 248 277 287 279 277 283 288 289 295 299 303 307 308 310 313 314 315 316 314 313 314 314 314 312 309 308 301 293 290 281 260 249 240 230 224 226 225
218 217 195 236 228 197 208 240 262 277 288 289 281 282 291 296 297 303 310 312 315 316 316 316 317 316 317 318 319 318 316 314 311 308 302 295 294 290 256 245 245 233 232 230
206 190 183 214 182 175 196 230 255 269 277 287 289 286 292 295 296 305 312 316 318 317 316 315 316 316 319 320 321 320 316 315 311 309 306 300 297 301 308 297 266 245 241 236
180 139 167 198 195 187 192 228 272 292 291 285 284 292 298 298 305 314 317 317 316 315 315 316 318 319 321 321 321 319 317 316 318 314 314 309 305 307 308 313 333 35 32 6
189 179 187 182 164 163 175 224 282 297 297 297 293 298 305 311 314 315 315 316 317 318 320 322 322 323 324 323 321 320 318 314 315 317 319 318 316 316 327 346 38 69 68 56
173 159 158 167 189 199 207 241 264 280 289 292 297 302 306 308 309 312 316 321 324 324 323 323 324 325 324 324 322 320 318 325 331 326 331 339 344 353 16 31 59 71 78 84
148 180 195 206 213 214 220 231 243 263 280 289 293 301 310 315 319 323 326 327 322 316 317 323 327 327 326 326 324 320 317 323 336 337 338 342 350 6 30 56 72 73 68 88
179 182 178 181 189 205 226 241 252 267 272 279 297 308 316 321 322 322 323 324 325 326 331 333 332 330 328 329 329 324 322 325 333 338 343 360 11 22 50 67 76 76 68 77
172 170 173 177 177 185 207 230 247 262 276 289 302 307 308 309 312 317 322 326 332 335 336 334 330 332 332 331 336 330 336 343 353 358 4 18 35 49 59 70 73 69 69 74
168 166 169 176 180 186 208 229 246 265 280 292 302 309 315 318 321 324 326 324 327 330 327 327 330 334 334 332 338 336 345 355 8 15 22 33 42 51 59 69 77 72 70 71
174 171 173 181 191 203 214 223 234 263 286 298 303 306 309 313 320 324 328 330 334 337 333 329 336 338 334 331 332 344 354 6 20 29 36 47 55 57 60 66 66 58 55 54
178 176 181 184 192 210 222 220 228 254 283 300 306 310 316 321 326 326 316 315 325 332 334 334 340 338 337 337 344 355 6 18 27 40 46 52 61 61 57 59 62 56 52 46
177 177 179 185 197 209 218 221 225 238 262 286 302 311 313 311 314 323 329 329 331 332 334 337 338 340 343 349 355 360 7 18 28 40 50 54 60 65 68 66 67 70 61 44
177 179 188 185 174 184 216 229 226 230 247 275 291 305 312 316 316 305 308 316 328 332 336 338 341 346 351 359 359 3 7 12 17 31 45 53 57 62 66 67 66 69 72 60
186 184 182 180 189 205 213 208 206 221 243 278 298 315 318 306 303 313 319 326 335 340 342 343 348 352 359 2 2 5 7 7 6 14 30 37 45 54 57 56 59 64 60 52
192 195 199 200 199 195 182 175 186 200 211 256 284 306 320 320 318 321 327 335 343 345 349 352 354 356 0 1 2 5 6 4 7 12 16 23 31 36 43 55 62 63 63 57
198 200 204 214 210 189 173 171 178 188 192 207 252 297 319 329 336 340 342 346 350 352 354 356 358 1 2 2 4 7 9 9 8 9 11 13 15 18 21 35 44 51 58 61